Lafayette, IN

10:02 AM EDT on April 25, 2017 (GMT -0400)
Purdue Univ

Weather History for KLAF - October, 2014

Change the Weather History Date:

Friday, October 17, 2014

  Actual Average Record
Temperature  
Mean Temperature 57 °F 54 °F  
Max Temperature 63 °F 65 °F 82 °F (1965)
Min Temperature 50 °F 43 °F 29 °F (1977)
Degree Days  
Heating Degree Days 8 11  
Month to date heating degree days 182 156  
Since 1 July heating degree days 332 241  
Cooling Degree Days 0 0  
Month to date cooling degree days 7 13  
Year to date cooling degree days 743 978  
Growing Degree Days 6 (Base 50)    
Moisture  
Dew Point 47 °F    
Average Humidity 77    
Maximum Humidity 93    
Minimum Humidity 60    
Precipitation  
Precipitation 0.00 in 0.08 in 1.34 in (1988)
Month to date precipitation 5.08 1.59  
Year to date precipitation 35.20 29.80  
Sea Level Pressure  
Sea Level Pressure 29.72 in    
Wind  
Wind Speed 12 mph (WSW)    
Max Wind Speed 24 mph    
Max Gust Speed 33 mph    
Visibility 10 miles    
Events      
T = Trace of Precipitation, MM = Missing Value Source: NWS Daily Summary

Daily Weather History Graph

Daily Weather History Graph

Search for Another Location

Airport or City:

Trip Planner

Search our weather history database for the weather conditions in past years. The results will help you decide how hot, cold, wet, or windy it might be!

Date:

Astronomy

Oct. 17, 2014 Rise Set
Actual Time 8:00 AM EDT 7:04 PM EDT
Civil Twilight 7:33 AM EDT 7:32 PM EDT
Nautical Twilight 7:01 AM EDT 8:03 PM EDT
Astronomical Twilight 6:30 AM EDT 8:35 PM EDT
Moon 2:03 AM EDT (10/17) 3:52 PM EDT (10/17)
Length of Visible Light 11h 59m
Length of Day
11h 03m
Waning Crescent, 33% of the Moon is Illuminated
Oct 17
Waning Crescent
Oct 23
New
Oct 30
First Quarter
Nov 6
Full
Nov 14
Last Quarter

Hourly Weather History & Observations

Time (EDT) Temp. Dew Point Humidity Pressure Visibility Wind Dir Wind Speed Gust Speed Precip Events Conditions
12:54 AM 51.1 °F 48.9 °F 92% 29.75 in 10.0 mi South 6.9 mph - N/A   Clear
1:20 AM - - N/A% - - South 8.1 mph - N/A   Scattered Clouds
1:54 AM 51.1 °F 48.9 °F 92% 29.73 in 10.0 mi South 5.8 mph - N/A   Clear
2:54 AM 51.1 °F 48.9 °F 92% 29.69 in 10.0 mi SSW 5.8 mph - N/A   Clear
3:54 AM 52.0 °F 48.9 °F 89% 29.66 in 10.0 mi SSW 5.8 mph - N/A   Clear
4:54 AM 52.0 °F 48.9 °F 89% 29.65 in 10.0 mi SSW 6.9 mph - N/A   Clear
5:54 AM 51.1 °F 48.0 °F 89% 29.64 in 10.0 mi SW 3.5 mph - N/A   Clear
6:54 AM 52.0 °F 48.0 °F 86% 29.64 in 10.0 mi WSW 9.2 mph - N/A   Clear
7:54 AM 50.0 °F 48.0 °F 93% 29.64 in 10.0 mi SW 6.9 mph - N/A   Clear
8:54 AM 51.1 °F 48.0 °F 89% 29.66 in 10.0 mi WSW 6.9 mph - N/A   Clear
9:54 AM 55.0 °F 48.0 °F 77% 29.67 in 10.0 mi West 9.2 mph - N/A   Clear
10:54 AM 57.9 °F 48.0 °F 70% 29.66 in 10.0 mi WSW 12.7 mph - N/A   Clear
11:54 AM 61.0 °F 48.9 °F 64% 29.66 in 10.0 mi West 12.7 mph - N/A   Clear
12:54 PM 61.0 °F 48.0 °F 62% 29.67 in 10.0 mi West 13.8 mph - N/A   Clear
1:54 PM 62.1 °F 48.0 °F 60% 29.68 in 10.0 mi West 18.4 mph 29.9 mph N/A   Scattered Clouds
2:54 PM 61.0 °F 48.0 °F 62% 29.67 in 10.0 mi West 20.7 mph 26.5 mph N/A   Overcast
3:54 PM 57.9 °F 46.0 °F 65% 29.72 in 10.0 mi West 17.3 mph 28.8 mph N/A   Overcast
4:54 PM 57.0 °F 46.0 °F 67% 29.73 in 10.0 mi West 18.4 mph 25.3 mph N/A   Overcast
5:54 PM 55.9 °F 45.0 °F 67% 29.75 in 10.0 mi West 15.0 mph 20.7 mph N/A   Overcast
6:54 PM 55.0 °F 46.0 °F 72% 29.79 in 10.0 mi West 11.5 mph - N/A   Overcast
7:54 PM 55.0 °F 46.0 °F 72% 29.81 in 10.0 mi West 12.7 mph - N/A   Overcast
8:54 PM 55.0 °F 46.0 °F 72% 29.82 in 10.0 mi West 10.4 mph - N/A   Overcast
9:54 PM 54.0 °F 45.0 °F 72% 29.84 in 10.0 mi West 13.8 mph - N/A   Overcast
10:54 PM 54.0 °F 45.0 °F 72% 29.85 in 10.0 mi WNW 12.7 mph - N/A   Overcast
11:54 PM 53.1 °F 46.0 °F 77% 29.85 in 10.0 mi WNW 12.7 mph - N/A   Overcast